Time,TemperatureF,DewpointF,PressureIn,WindDirection,WindDirectionDegrees,WindSpeedMPH,WindSpeedGustMPH,Humidity,HourlyPrecipIn,Conditions,Clouds,dailyrainin,SoftwareType,DateUTC
2013-11-11 00:23:00,34.0,27.0,30.29,North,0,0.0,0.0,75,0.00,,,0.00,,2013-11-11 05:23:00,
2013-11-11 00:54:00,34.0,27.0,30.27,North,0,0.0,0.0,76,0.00,,,0.00,,2013-11-11 05:54:00,
2013-11-11 01:22:00,34.0,28.0,30.26,North,0,0.0,0.0,77,0.00,,,0.00,,2013-11-11 06:22:00,
2013-11-11 01:32:00,34.0,28.0,30.26,North,0,0.0,0.0,77,0.00,,,0.00,,2013-11-11 06:32:00,
2013-11-11 01:42:00,34.0,28.0,30.26,North,0,0.0,0.0,77,0.00,,,0.00,,2013-11-11 06:42:00,
2013-11-11 01:52:00,34.0,28.0,30.26,North,0,0.0,0.0,77,0.00,,,0.00,,2013-11-11 06:52:00,
2013-11-11 02:00:00,32.0,26.0,30.24,North,0,0.0,0.0,78,0.00,,,0.00,,2013-11-11 07:00:00,
2013-11-11 02:22:00,32.0,26.0,30.24,North,0,0.0,0.0,78,0.00,,,0.00,,2013-11-11 07:22:00,
2013-11-11 02:32:00,32.0,26.0,30.24,North,0,0.0,0.0,78,0.00,,,0.00,,2013-11-11 07:32:00,
2013-11-11 02:42:00,32.0,26.0,30.24,North,0,0.0,0.0,78,0.00,,,0.00,,2013-11-11 07:42:00,
2013-11-11 02:52:00,32.0,26.0,30.24,North,0,0.0,0.0,78,0.00,,,0.00,,2013-11-11 07:52:00,
2013-11-11 03:22:00,31.0,26.0,30.26,North,0,0.0,0.0,80,0.00,,,0.00,,2013-11-11 08:22:00,
2013-11-11 03:42:00,33.0,28.0,30.24,North,0,0.0,0.0,81,0.00,,,0.00,,2013-11-11 08:42:00,
2013-11-11 03:52:00,33.0,28.0,30.24,North,0,0.0,0.0,81,0.00,,,0.00,,2013-11-11 08:52:00,
2013-11-11 04:50:00,34.0,28.0,30.24,North,0,0.0,0.0,79,0.00,,,0.00,,2013-11-11 09:50:00,
2013-11-11 06:12:00,33.0,28.0,30.23,North,0,0.0,0.0,81,0.00,,,0.00,,2013-11-11 11:12:00,
2013-11-11 06:21:00,33.0,28.0,30.23,North,0,0.0,0.0,81,0.00,,,0.00,,2013-11-11 11:21:00,
2013-11-11 06:33:00,33.0,28.0,30.23,North,0,0.0,0.0,81,0.00,,,0.00,,2013-11-11 11:33:00,
2013-11-11 06:52:00,34.0,28.0,30.21,North,0,0.0,0.0,80,0.00,,,0.00,,2013-11-11 11:52:00,
2013-11-11 07:22:00,35.0,29.0,30.22,North,0,0.0,0.0,79,0.00,,,0.00,,2013-11-11 12:22:00,
2013-11-11 07:52:00,35.0,29.0,30.24,North,0,0.0,0.0,79,0.00,,,0.00,,2013-11-11 12:52:00,
2013-11-11 08:22:00,35.0,29.0,30.23,North,0,0.0,0.0,79,0.00,,,0.00,,2013-11-11 13:22:00,
2013-11-11 08:42:00,36.0,30.0,30.22,North,0,0.0,0.0,79,0.00,,,0.00,,2013-11-11 13:42:00,
2013-11-11 08:52:00,36.0,30.0,30.22,North,0,0.0,0.0,79,0.00,,,0.00,,2013-11-11 13:52:00,
2013-11-11 09:11:00,36.0,30.0,30.23,North,0,0.0,0.0,78,0.00,,,0.00,,2013-11-11 14:11:00,
2013-11-11 09:22:00,36.0,30.0,30.23,North,0,0.0,0.0,78,0.00,,,0.00,,2013-11-11 14:22:00,
2013-11-11 09:42:00,37.0,31.0,30.21,North,0,0.0,0.0,78,0.00,,,0.00,,2013-11-11 14:42:00,
2013-11-11 09:52:00,37.0,31.0,30.21,North,0,0.0,0.0,78,0.00,,,0.00,,2013-11-11 14:52:00,
2013-11-11 10:22:00,40.0,32.0,30.19,North,0,0.0,0.0,74,0.00,,,0.00,,2013-11-11 15:22:00,
2013-11-11 10:43:00,41.0,32.0,30.19,North,0,0.0,0.0,71,0.00,,,0.00,,2013-11-11 15:43:00,
2013-11-11 10:53:00,42.0,33.0,30.19,North,0,0.0,0.0,69,0.00,,,0.00,,2013-11-11 15:53:00,
2013-11-11 11:23:00,43.0,32.0,30.16,North,0,0.0,0.0,66,0.00,,,0.00,,2013-11-11 16:23:00,
2013-11-11 11:33:00,43.0,32.0,30.16,North,0,0.0,0.0,66,0.00,,,0.00,,2013-11-11 16:33:00,
2013-11-11 11:42:00,43.0,32.0,30.16,North,0,0.0,0.0,66,0.00,,,0.00,,2013-11-11 16:42:00,
2013-11-11 11:53:00,43.0,32.0,30.16,North,0,0.0,0.0,66,0.00,,,0.00,,2013-11-11 16:53:00,
2013-11-11 12:12:00,45.0,33.0,30.14,North,0,0.0,0.0,62,0.00,,,0.00,,2013-11-11 17:12:00,
2013-11-11 12:22:00,45.0,33.0,30.14,North,0,0.0,0.0,62,0.00,,,0.00,,2013-11-11 17:22:00,
2013-11-11 12:52:00,46.0,33.0,30.13,North,0,0.0,0.0,60,0.00,,,0.00,,2013-11-11 17:52:00,
2013-11-11 13:23:00,46.0,32.0,30.11,North,0,0.0,0.0,59,0.00,,,0.00,,2013-11-11 18:23:00,
2013-11-11 13:42:00,46.0,32.0,30.11,North,0,0.0,0.0,59,0.00,,,0.00,,2013-11-11 18:42:00,
2013-11-11 13:52:00,46.0,32.0,30.11,North,0,0.0,0.0,59,0.00,,,0.00,,2013-11-11 18:52:00,
2013-11-11 14:01:00,46.0,32.0,30.11,North,0,0.0,0.0,59,0.00,,,0.00,,2013-11-11 19:01:00,
2013-11-11 14:22:00,48.0,34.0,30.09,North,0,0.0,0.0,58,0.00,,,0.00,,2013-11-11 19:22:00,
2013-11-11 14:53:00,48.0,34.0,30.09,North,0,0.0,0.0,58,0.00,,,0.00,,2013-11-11 19:53:00,
2013-11-11 15:02:00,48.0,34.0,30.09,North,0,0.0,0.0,58,0.00,,,0.00,,2013-11-11 20:02:00,
2013-11-11 15:22:00,49.0,35.0,30.08,North,0,0.0,0.0,58,0.00,,,0.00,,2013-11-11 20:22:00,
2013-11-11 15:42:00,49.0,35.0,30.08,North,0,0.0,0.0,58,0.00,,,0.00,,2013-11-11 20:42:00,
2013-11-11 15:52:00,49.0,35.0,30.08,North,0,0.0,0.0,58,0.00,,,0.00,,2013-11-11 20:52:00,
2013-11-11 16:22:00,49.0,35.0,30.06,North,0,0.0,0.0,59,0.00,,,0.00,,2013-11-11 21:22:00,
2013-11-11 16:43:00,48.0,36.0,30.06,North,0,0.0,0.0,62,0.00,,,0.00,,2013-11-11 21:43:00,
2013-11-11 16:55:00,47.0,35.0,30.06,North,0,0.0,0.0,63,0.00,,,0.00,,2013-11-11 21:55:00,
2013-11-11 17:14:00,47.0,35.0,30.06,North,0,0.0,0.0,63,0.00,,,0.00,,2013-11-11 22:14:00,
2013-11-11 17:24:00,47.0,35.0,30.06,North,0,0.0,0.0,63,0.00,,,0.00,,2013-11-11 22:24:00,
2013-11-11 17:53:00,48.0,39.0,30.03,North,0,0.0,0.0,71,0.00,,,0.00,,2013-11-11 22:53:00,
2013-11-11 18:22:00,47.0,40.0,30.03,North,0,0.0,0.0,77,0.02,,,0.02,,2013-11-11 23:22:00,
2013-11-11 18:42:00,47.0,41.0,30.03,North,0,0.0,0.0,78,0.02,,,0.02,,2013-11-11 23:42:00,
2013-11-11 18:53:00,47.0,41.0,30.03,North,0,0.0,0.0,78,0.02,,,0.02,,2013-11-11 23:53:00,
2013-11-11 19:12:00,46.0,41.0,30.06,North,0,0.0,0.0,84,0.04,,,0.06,,2013-11-12 00:12:00,
2013-11-11 19:22:00,46.0,41.0,30.06,North,0,0.0,0.0,84,0.04,,,0.06,,2013-11-12 00:22:00,
2013-11-11 19:42:00,46.0,42.0,30.05,North,0,0.0,0.0,87,0.04,,,0.08,,2013-11-12 00:42:00,
2013-11-11 19:52:00,46.0,42.0,30.05,North,0,0.0,0.0,87,0.04,,,0.08,,2013-11-12 00:52:00,
2013-11-11 20:11:00,45.0,42.0,30.03,North,0,0.0,0.0,88,0.04,,,0.10,,2013-11-12 01:11:00,
2013-11-11 20:22:00,45.0,42.0,30.03,North,0,0.0,0.0,88,0.04,,,0.10,,2013-11-12 01:22:00,
2013-11-11 20:42:00,45.0,42.0,30.03,North,0,0.0,0.0,88,0.02,,,0.10,,2013-11-12 01:42:00,
2013-11-11 20:52:00,45.0,42.0,30.03,North,0,0.0,0.0,88,0.02,,,0.10,,2013-11-12 01:52:00,
2013-11-11 21:22:00,45.0,42.0,30.03,North,0,0.0,0.0,88,0.00,,,0.10,,2013-11-12 02:22:00,
2013-11-11 21:32:00,45.0,42.0,30.03,North,0,0.0,0.0,88,0.00,,,0.10,,2013-11-12 02:32:00,
2013-11-11 21:52:00,45.0,42.0,30.06,North,0,0.0,0.0,88,0.00,,,0.10,,2013-11-12 02:52:00,
2013-11-11 22:22:00,42.0,38.0,30.06,North,0,0.0,0.0,87,0.00,,,0.10,,2013-11-12 03:22:00,
2013-11-11 22:45:00,41.0,38.0,30.08,North,0,0.0,0.0,89,0.00,,,0.10,,2013-11-12 03:45:00,
2013-11-11 22:54:00,41.0,38.0,30.08,North,0,0.0,0.0,89,0.00,,,0.10,,2013-11-12 03:54:00,
2013-11-11 23:14:00,40.0,38.0,30.10,North,0,0.0,0.0,91,0.02,,,0.12,,2013-11-12 04:14:00,
2013-11-11 23:24:00,39.0,37.0,30.09,North,0,0.0,0.0,91,0.02,,,0.12,,2013-11-12 04:24:00,
2013-11-11 23:43:00,37.0,35.0,30.11,North,0,0.0,0.0,91,0.02,,,0.12,,2013-11-12 04:43:00,
2013-11-11 23:53:00,36.0,34.0,30.11,North,0,0.0,0.0,91,0.02,,,0.12,,2013-11-12 04:53:00,